Location: Cincovillas
(41.3322°N, 3.4548°W)
Time: 14:21:51
(UTC+00:00)

Daily predictions for brighter satellites

Satellite Brightness Start Highest point End
(mag) Time Altitude Azimuth Time Altitude Azimuth Time Altitude Azimuth
Cosmos 1605 Rocket 4.0 19:36:47 10° S 19:42:55 79° E 19:49:10 10° N
Cosmos 371 Rocket 3.9 19:43:25 10° NNW 19:48:11 61° WSW 19:52:55 10° S
Okean 1 Rocket 4.3 19:47:59 10° SE 19:51:22 22° E 19:54:47 10° NE
Cosmos 1980 Rocket 4.1 19:48:28 10° N 19:51:53 16° NE 19:55:16 10° E
ARIANE 6 FM1 Upper Stage 2.6 19:49:29 10° NW 19:53:27 81° SW 19:57:25 10° SSE
SL-08 R/B 4.5 19:50:18 10° NE 19:54:11 24° E 19:58:00 10° SSE
Cosmos 2084 4.1 19:50:30 10° SW 19:54:34 59° NW 19:58:40 10° NNE
SL-24 R/B 4.1 19:51:40 10° NNE 19:56:11 70° ESE 20:00:27 10° S
CZ-4 R/B 1.3 19:54:22 10° SSE 19:57:54 52° ENE 20:01:26 10° N
CZ-4B R/B 3.9 19:56:59 10° SSE 20:00:55 69° ENE 20:04:55 10° N
ASTEX 1 3.5 19:59:04 10° SSE 20:03:54 59° E 20:08:47 10° N
SPOT 5 2.8 19:59:50 10° S 20:04:07 75° WSW 20:08:27 10° NNW
GEOS 3 Rocket 4.0 19:59:53 10° SSE 20:05:08 67° SW 20:10:30 10° NW
Cosmos 1862 4.0 20:01:43 10° NNW 20:05:09 48° W 20:08:34 10° S
CZ-4B DEB 4.4 20:00:05 10° SSE 20:05:29 61° ENE 20:10:56 10° N
Cosmos 2056 Rocket 3.6 20:01:17 10° SSW 20:06:41 88° WNW 20:12:06 10° NNE
Cosmos 1833 Rocket 2.6 20:02:04 10° SSW 20:07:39 77° ESE 20:13:16 10° NNE
CZ-4B R/B 3.7 20:02:32 10° SE 20:07:54 46° ENE 20:13:15 10° N
CSL-04 Rocket 3.8 20:02:57 10° SSE 20:08:29 82° WSW 20:13:59 10° NNW
Cosmos 1624 Rocket 4.0 20:04:30 10° SSW 20:09:40 86° WNW 20:14:52 10° NNE
Terra 2.1 20:07:34 10° SE 20:12:04 48° ENE 20:16:34 10° N
Sich 1 Rocket 4.2 20:10:11 10° SSE 20:14:06 34° E 20:18:02 10° NNE
ATLAS 5 CENTAUR R/B 4.3 20:16:12 10° WNW 20:19:18 17° WSW 20:22:47 10° SSW
Cosmos 2058 4.1 20:16:40 10° NNW 20:20:19 39° W 20:23:56 10° SSW
SJ 16-02 2.7 20:18:07 10° NW 20:22:00 35° WSW 20:25:52 10° SSW
Resurs 01 Rocket 4.4 20:19:58 10° SW 20:22:22 14° W 20:24:46 10° WNW
MetOp-B 4.2 20:17:20 10° SSE 20:22:36 62° ENE 20:27:53 10° N
PAYLOAD B 4.2 20:18:45 10° SSE 20:24:13 77° ENE 20:29:45 10° N
USA 229 DEB 4.2 20:19:35 10° NNW 20:27:12 70° NE 20:34:05 16° SE
USA 229 4.2 20:19:38 10° NNW 20:27:15 69° NE 20:34:07 16° SE
Cosmos 1743 4.2 20:26:37 10° NE 20:28:15 14° ENE 20:28:34 13° E
Cosmos 44 Rocket 3.6 20:23:31 10° S 20:28:16 46° ESE 20:33:11 10° NE
ISS -3.5 20:26:20 10° SSW 20:29:31 43° SE 20:32:42 10° ENE
Cosmos 1459 Rocket 4.1 20:23:41 10° S 20:29:48 59° E 20:35:52 10° NNE
SKYMED 3 4.2 20:28:45 10° NNE 20:32:41 70° ESE 20:36:37 10° S
Cosmos 2100 Rocket 4.0 20:27:12 10° S 20:33:20 70° E 20:39:35 10° NNE
ATLAS 2AS CENTAUR R/B 3.8 20:30:08 10° WSW 20:36:50 48° NW 20:43:26 10° NNE
ADEOS 3.5 20:32:34 13° SSE 20:37:09 74° ENE 20:42:21 10° N
Spot 2 Rocket 3.8 20:36:58 19° SE 20:40:18 49° ENE 20:45:08 10° N
BREEZE-M DEB (TANK) 3.7 20:38:57 10° NW 20:41:50 52° NNE 20:47:10 16° ESE
Cosmos 2151 Rocket 4.0 20:37:34 10° SSW 20:41:53 64° W 20:46:13 10° N
SL-4 R/B 2.1 20:38:49 10° NW 20:42:38 62° NNE 20:44:44 25° ESE
Cosmos 2082 Rocket 3.0 20:40:45 18° SSE 20:43:53 29° ESE 20:48:45 10° NE
Okean 2 Rocket 3.1 20:39:47 10° S 20:44:14 83° W 20:48:45 10° N
Cosmos 1536 Rocket 4.0 20:49:48 10° NNW 20:54:06 61° W 20:57:49 14° S
Cosmos 1607 4.1 20:48:50 10° S 20:54:38 46° ESE 21:00:32 10° NE
Cosmos 2233 Rocket 4.4 20:51:19 21° SSE 20:55:01 42° E 21:00:46 10° NNE
IRS-1A Rocket 4.3 20:51:01 17° SSE 20:55:35 90° ENE 21:01:30 10° NNW
Cosmos 2228 3.6 20:55:36 30° ESE 20:56:25 33° E 21:00:08 10° NNE
Timation 1 Rocket 4.4 20:52:04 10° SSW 20:58:03 84° WNW 21:04:07 10° NNE
USA 186 1.6 20:58:27 48° ENE 20:58:27 48° ENE 21:00:58 10° N
Cosmos 292 Rocket 3.7 20:54:10 10° NNW 20:58:57 90° SSE 21:01:33 27° SSE
Okean O Rocket 1.5 20:57:28 29° SSE 20:59:34 69° ENE 21:03:50 10° N
DELTA 2 R/B (1) 4.0 20:55:31 10° SW 21:00:40 40° SSE 21:03:10 25° ESE
ERS-1 Rocket 3.9 20:59:21 10° S 21:04:09 45° W 21:08:58 10° NNW
CZ-4C R/B 1.8 21:01:41 10° SW 21:05:37 70° NW 21:10:36 10° NNE
Cosmos 1725 Rocket 3.9 21:00:02 12° S 21:05:58 77° E 21:12:14 10° N
Tsikada Rocket 4.4 21:00:18 10° N 21:06:12 44° ENE 21:08:51 29° SE
Cosmos 1452 Rocket 3.4 21:01:16 10° SSW 21:06:29 83° ESE 21:11:44 10° NNE
Cosmos 1697 Rocket 2.9 21:02:52 10° NNW 21:08:27 67° WSW 21:11:51 24° S
Cosmos 1741 Rocket 4.0 21:05:21 10° NNW 21:10:40 73° ENE 21:13:00 34° SSE
SL-16 R/B 4.2 21:08:59 10° NNE 21:12:12 15° NE 21:14:58 11° ENE
Okean-O 2.5 21:10:27 32° SSE 21:12:26 88° WSW 21:16:50 10° NNW
ATLAS 3B R/B 2.9 21:08:59 10° NW 21:16:45 86° WSW 21:20:47 30° SSE
CZ-4B R/B 3.8 21:19:07 36° ESE 21:20:19 44° ENE 21:24:50 10° N
Cosmos 968 Rocket 4.0 21:16:02 10° NNW 21:21:08 53° WSW 21:24:03 24° S
USA 245 4.4 21:18:48 34° SE 21:21:22 66° ENE 21:27:13 10° N
Cosmos 1892 Rocket 3.4 21:17:49 10° N 21:22:10 89° E 21:23:28 45° S
Cosmos 1455 Rocket 3.2 21:19:52 22° SSW 21:22:39 72° W 21:27:03 10° N
Cosmos 1302 Rocket 3.8 21:21:11 25° S 21:24:11 72° ESE 21:29:22 10° NNE
Cosmos 2016 Rocket 4.0 21:19:36 14° S 21:25:03 83° W 21:31:19 10° N
Cosmos 2333 Rocket 4.1 21:21:35 10° N 21:25:11 17° NE 21:27:39 13° ENE
BREEZE-M DEB (TANK) 4.4 21:24:07 10° WNW 21:28:04 40° SSW 21:32:22 26° SSE
Cosmos 2061 Rocket 3.9 21:29:50 32° S 21:32:51 72° E 21:39:05 10° NNE
CZ-4B R/B 2.6 21:33:11 61° NE 21:33:11 61° NE 21:36:12 10° N
Cosmos 1782 2.8 21:32:58 53° SW 21:33:32 64° W 21:37:01 10° N
Cosmos 1544 Rocket 4.3 21:35:33 37° ENE 21:35:33 37° ENE 21:39:07 10° NNE
SPOT 3 Rocket 3.4 21:34:29 46° SSE 21:36:02 78° ENE 21:41:11 10° N
NOSS 3-3 (A) 3.5 21:34:26 38° S 21:36:17 62° ESE 21:42:00 10° NE
Cosmos 1980 Rocket 2.1 21:30:56 10° NNW 21:36:40 89° WSW 21:38:33 45° SSE
BREEZE-M DEB (TANK) 3.2 21:31:43 10° SW 21:36:17 48° SW 21:36:17 48° SW
Cosmos 1850 Rocket 4.5 21:39:43 10° NNW 21:44:44 52° WSW 21:46:30 35° SSW
Terra 4.2 21:46:45 10° SW 21:49:49 17° W 21:52:55 10° NW
Cosmos 2084 Rocket 4.4 21:46:10 10° NNW 21:50:02 34° NE 21:50:19 34° NE
IRS-1C Rocket 4.0 21:51:54 57° SSE 21:53:03 87° ENE 21:58:22 10° NNW
Milstar 3 4.1 21:47:10 10° WSW 21:53:40 32° S 21:54:31 31° S
CZ-2C R/B 4.2 21:55:17 23° N 21:55:17 23° N 21:56:30 10° N
Cosmos 1758 Rocket 3.8 21:49:39 10° N 21:53:42 53° ENE 21:53:42 53° ENE
Gbstr 26 Del rocket 3.0 21:56:09 10° NW 22:00:51 73° NNE 22:00:51 73° NNE
Cosmos 1743 4.4 21:58:43 10° NW 22:00:44 20° W 22:00:44 20° W
Cosmos 2360 Rocket 4.0 21:58:35 10° N 22:02:30 19° NE 22:04:14 16° ENE
NOSS 3-3 (C) 3.4 22:02:52 53° SSW 22:04:10 83° ESE 22:10:07 10° NE
ISS -1.7 22:03:27 10° W 22:06:24 28° NNW 22:08:14 17° NNE
Geosat 3.8 22:06:47 10° NNE 22:11:49 90° ESE 22:12:24 71° SSW
Cosmos 2237 4.1 22:06:44 10° NNW 22:12:31 80° ENE 22:13:13 68° SE
Ariane Rocket 3.2 22:12:25 55° SW 22:13:05 61° W 22:18:06 10° NNW
USA 305 4.1 22:10:15 10° NW 22:13:09 30° N 22:13:09 30° N
Meteor 2-9 4.5 22:10:37 10° N 22:16:04 85° E 22:16:32 75° SSE
Cosmos 1602 Rocket 4.2 22:15:23 10° N 22:18:42 46° NNE 22:18:42 46° NNE
SL-4 R/B 4.2 22:16:48 10° W 22:18:10 16° W 22:18:10 16° W
Cosmos 2219 Rocket 4.2 22:16:28 10° N 22:19:57 16° NE 22:21:48 14° ENE
Cosmos 1437 Rocket 4.3 22:21:47 29° N 22:21:47 29° N 22:23:39 10° N
Cosmos 2082 Rocket 3.4 22:22:24 10° SW 22:27:45 41° WNW 22:33:08 10° N
Cosmos 2369 3.7 22:22:11 10° NNW 22:27:51 67° WSW 22:28:18 64° SW
Cosmos 2151 3.7 22:25:47 10° NNW 22:28:56 50° NNW 22:28:56 50° NNW
Cosmos 2322 Rocket 3.3 22:25:22 10° N 22:30:21 31° ENE 22:31:03 30° ENE
Okean O Rocket 4.3 22:35:52 10° W 22:36:10 10° W 22:36:29 10° W
Meteor 1-5 Rocket 4.3 22:34:25 10° N 22:40:03 66° ENE 22:40:03 66° ENE
USA 234 3.1 22:35:31 10° NE 22:42:05 73° SE 22:42:49 66° S
Okean 1-7 Rocket 4.5 22:43:56 10° N 22:47:08 46° N 22:47:08 46° N
Cosmos 2278 3.9 22:44:02 10° NNW 22:49:38 60° ENE 22:49:38 60° ENE
Helios 1A 4.4 22:46:27 10° N 22:48:44 33° N 22:48:44 33° N
COSMOS 2406 3.8 22:49:26 43° WSW 22:50:56 55° WNW 22:56:35 10° NNE
SL-16 R/B 2.2 22:51:25 10° NNW 22:56:47 80° N 22:56:47 80° N
Cosmos 1486 Rocket 4.3 22:56:18 10° NNW 23:00:50 60° NNE 23:00:50 60° NNE
Cosmos 2098 Rocket 4.0 23:02:09 54° WNW 23:02:09 54° WNW 23:06:29 10° N
Nadezhda 4 Rocket 3.8 22:56:39 10° N 23:02:47 82° W 23:02:51 82° WSW
Cosmos 2333 Rocket 2.3 23:04:29 10° NNW 23:09:39 73° NW 23:09:39 73° NW
BREEZE-M DEB (TANK) 4.4 23:06:48 10° W 23:16:09 53° N 23:20:59 10° ENE
CZ-2C R/B 4.5 23:16:22 19° ENE 23:16:40 20° ENE 23:20:20 10° NNE
Cosmos 2195 Rocket 4.4 23:14:39 10° N 23:20:43 84° NNW 23:20:43 84° NNW
Cosmos 2026 Rocket 3.9 23:21:03 10° N 23:27:17 85° NNE 23:27:17 85° NNE
DNEPR-1 R/B 4.4 23:28:12 10° NNW 23:33:34 79° N 23:33:34 79° N
Cosmos 2333 4.5 23:34:33 10° NNW 23:39:28 66° N 23:39:28 66° N
ALOS 2 4.1 23:43:55 35° N 23:43:55 35° N 23:46:31 10° N
ARIANE 5 R/B 4.1 23:44:33 35° NNW 23:44:33 35° NNW 23:47:10 10° NNW
Cosmos 2360 Rocket 2.6 23:41:25 10° NNW 23:45:58 56° NW 23:45:58 56° NW
